Location: Newark
(45.5167°N, 11.1667°E)
Time: 23:27:29
(UTC+00:00)

Vanguard 1 Rocket - Visible Passes

Search period start: 09 December 2019 00:00
Search period end: 19 December 2019 00:00
Orbit: 650 x 4226 km, 34.3° (Epoch: 09 December)

Date Brightness Start Highest point End Pass type
(mag) Time Alt. Az. Time Alt. Az. Time Alt. Az.
09 Dec 10.6 17:42:08 10° S 17:55:20 20° SSE 18:00:50 17° SE visible
09 Dec 10.4 20:07:30 10° SW 20:18:08 30° SSW 20:18:08 30° SSW visible
10 Dec 11.0 16:33:29 10° SSE 16:42:30 14° SE 16:49:59 10° ESE visible
10 Dec 10.2 18:53:58 10° SSW 19:10:36 32° SSE 19:11:03 32° SSE visible
10 Dec 10.8 21:23:15 10° WSW 21:28:21 21° SW 21:28:21 21° SW visible
11 Dec 10.4 17:41:26 10° SSW 17:57:50 26° SSE 18:03:58 21° ESE visible
11 Dec 10.2 20:08:49 10° SW 20:21:16 36° SSW 20:21:16 36° SSW visible
12 Dec 10.9 16:30:44 10° S 16:44:51 20° SE 16:55:40 10° ESE visible
12 Dec 10.0 18:54:42 10° SW 19:13:11 38° SSE 19:14:09 38° SSE visible
12 Dec 10.8 21:25:10 10° WSW 21:31:27 24° WSW 21:31:27 24° WSW visible
13 Dec 10.3 17:41:27 10° SSW 18:00:16 32° SSE 18:07:02 25° ESE visible
13 Dec 10.1 20:10:21 10° WSW 20:24:19 41° SSW 20:24:19 41° SSW visible
14 Dec 10.8 16:29:38 10° S 16:47:09 25° SE 16:59:53 10° E visible
14 Dec 9.9 18:55:47 10° SW 19:15:43 44° SSE 19:17:11 43° SSE visible
14 Dec 10.7 21:27:10 10° WSW 21:34:28 26° WSW 21:34:28 26° WSW visible
15 Dec 10.2 17:41:58 10° SW 18:02:40 39° SSE 18:10:02 28° ESE visible
15 Dec 10.1 20:12:03 10° WSW 20:27:19 45° SSW 20:27:19 45° SSW visible
15 Dec 11.3 22:44:22 10° W 22:44:36 10° W 22:44:36 10° W visible
16 Dec 10.7 16:29:24 10° SSW 16:49:21 31° SSE 17:02:52 12° E visible
16 Dec 9.8 18:57:07 10° SW 19:18:13 49° S 19:20:09 48° SSE visible
16 Dec 10.7 21:29:14 10° WSW 21:37:26 28° WSW 21:37:26 28° WSW visible
17 Dec 10.2 17:42:52 10° SW 18:05:02 44° SSE 18:12:58 30° ESE visible
17 Dec 10.0 20:13:53 10° WSW 20:30:14 48° SSW 20:30:14 48° SSW visible
17 Dec 11.3 22:46:43 10° W 22:47:32 12° W 22:47:32 12° W visible
18 Dec 10.7 16:29:45 10° SSW 16:51:31 37° SSE 17:05:46 13° E visible
18 Dec 9.8 18:58:40 10° WSW 19:20:42 53° S 19:23:03 51° SSE visible
18 Dec 10.6 21:31:23 10° W 21:40:20 29° WSW 21:40:20 29° WSW visible
